Location: Gessertshausen
(48.3303°N, 10.7339°E)
Time: 10:52:52
(UTC+00:00)

Daily predictions for brighter satellites

Satellite Brightness Start Highest point End
(mag) Time Altitude Azimuth Time Altitude Azimuth Time Altitude Azimuth
CZ-2C R/B 4.1 15:54:11 10° N 15:59:01 36° WNW 16:03:44 10° SW
Cosmos 1607 4.3 15:57:07 10° SSW 16:03:10 50° ESE 16:09:21 10° NE
Cosmos 1943 4.1 15:58:32 10° NNW 16:03:20 27° NE 16:08:07 10° ESE
Cosmos 1544 3.2 16:01:30 10° N 16:04:35 39° ENE 16:07:40 10° SSE
Cosmos 1634 Rocket 4.0 15:58:44 10° N 16:05:04 80° E 16:11:25 10° SSE
Cosmos 1269 Rocket 4.1 16:00:27 10° NNW 16:05:41 56° ENE 16:10:51 10° SE
PSLV R/B 3.9 16:01:40 10° S 16:05:53 70° WSW 16:10:10 10° NNW
SL-08 RB Rocket 3.8 16:02:22 10° SSE 16:06:50 82° WSW 16:11:21 10° NNW
Cosmos 614 Rocket 3.9 16:03:05 10° NNW 16:08:20 76° ENE 16:13:31 10° SSE
BREEZE-M DEB (TANK) 3.2 16:05:23 10° SW 16:08:30 78° SSE 16:19:11 10° ENE
Cosmos 1076 Rocket 3.9 16:05:18 10° N 16:09:28 42° ENE 16:13:36 10° SSE
Tiangong 0.7 16:08:51 10° WSW 16:10:53 16° SSW 16:12:54 10° SSE
Meteor 2-16 Rocket 4.5 16:05:37 10° S 16:11:45 84° E 16:17:54 10° N
SAR-Lupe-2 3.5 16:08:22 10° SSE 16:11:57 82° ENE 16:15:33 10° NNW
NOSS 3-4 (A) 3.9 16:05:11 10° NW 16:12:06 87° NE 16:20:03 10° SE
NOSS 3-4 (C) 3.9 16:05:20 10° NW 16:12:11 87° NE 16:20:03 10° SE
NOSS 3-3 (C) 4.3 16:08:07 10° SW 16:13:40 62° NW 16:20:14 10° NE
NOSS 3-3 (A) 4.3 16:08:32 10° WSW 16:14:03 61° NW 16:20:35 10° NE
Cosmos 2297 Rocket 2.9 16:09:02 10° SW 16:14:32 53° WNW 16:20:06 10° NNE
ERS-2 2.5 16:12:26 10° S 16:15:19 52° WSW 16:18:12 10° NNW
Cosmos 1953 Rocket 3.6 16:11:34 10° N 16:16:04 86° E 16:20:29 10° S
Cosmos 2219 3.2 16:10:54 10° SSW 16:16:27 65° ESE 16:22:03 10° NNE
Cosmos 2142 Rocket 4.5 16:12:07 10° N 16:18:12 61° ENE 16:24:16 10° SSE
Cosmos 44 3.5 16:13:32 10° NW 16:18:56 64° NE 16:24:06 10° SE
DMSP B5D2-2 4.1 16:17:17 10° NNE 16:22:28 63° ESE 16:27:37 10° S
USA 234 3.7 16:16:23 10° ENE 16:22:41 48° SE 16:28:57 10° SSW
Cosmos 1602 4.4 16:20:03 10° N 16:23:22 30° ENE 16:26:41 10° SE
Cosmos 1862 3.6 16:20:18 10° NNW 16:24:11 70° W 16:28:04 10° S
USA 308 2.8 16:23:03 10° WNW 16:25:00 31° SW 16:26:38 10° SSE
USA 307 2.9 16:24:20 10° WNW 16:28:07 50° NNE 16:31:19 13° E
Cosmos 1666 2.9 16:24:52 10° N 16:28:14 39° ENE 16:31:34 10° SSE
ISS -3.8 16:28:58 10° WNW 16:32:21 84° NNE 16:35:28 12° ESE
Cosmos 2279 Rocket 4.0 16:26:55 10° N 16:33:12 86° E 16:39:26 10° S
Cosmos 2082 3.8 16:28:21 10° S 16:33:49 57° ESE 16:39:20 10° NE
Aureole 3 Rocket 3.9 16:29:08 10° NNW 16:34:03 54° W 16:37:42 10° S
AQUARIUS 4.1 16:30:30 10° SSE 16:34:54 65° ENE 16:39:21 10° N
COSMO-SKYMED 1 3.7 16:34:42 14° NE 16:37:21 23° E 16:40:48 10° SE
Cosmos 1606 4.5 16:34:07 10° SW 16:37:23 31° WNW 16:40:40 10° N
ATLAS CENTAUR R/B 2.6 16:34:58 10° NW 16:38:53 61° NE 16:46:25 10° ESE
Cosmos 2058 Rocket 3.0 16:34:34 10° S 16:39:02 84° E 16:43:28 10° N
Lacrosse 5 3.9 16:44:19 10° SE 16:45:12 10° ESE 16:45:41 10° ESE
YAOGAN 11 4.4 16:41:08 10° N 16:45:41 72° WNW 16:50:12 10° SSW
Cosmos 405 Rocket 3.2 16:42:18 10° SSW 16:46:03 62° WNW 16:49:53 10° N
Helios 1A 3.3 16:44:13 11° NNE 16:48:04 42° E 16:51:59 10° S
Cosmos 1140 Rocket 3.7 16:44:58 10° NNW 16:50:00 47° ENE 16:54:57 10° SE
SMAP 3.5 16:48:32 10° S 16:53:09 67° WSW 16:57:49 10° NNW
USA 306 0.9 16:51:35 10° WNW 16:53:48 77° NNE 16:54:02 64° E
Nadezhda 4 Rocket 4.0 16:48:09 10° SSE 16:54:06 56° E 17:00:05 10° NNE
NOSS 8 (A) 4.3 16:51:53 10° SW 16:55:42 76° SE 16:57:08 30° NE
CZ-4B R/B 4.1 16:58:57 25° ENE 16:58:57 25° ENE 17:02:04 10° N
Cosmos 1500 3.6 16:55:34 10° NNW 16:59:04 59° W 17:02:32 10° S
Meteor 1-20 Rocket 4.2 16:54:06 10° N 16:59:35 58° ENE 17:05:07 10° SSE
Cosmos-2242 3.1 16:57:15 10° S 17:01:27 51° E 17:05:03 14° NNE
Cosmos 1437 Rocket 4.4 16:59:52 10° NNW 17:03:16 35° W 17:06:42 10° SSW
NOAA 6 4.0 17:01:43 10° SSE 17:06:47 65° ENE 17:11:52 10° N
Cosmos 2263 Rocket 2.1 17:01:59 10° SSW 17:07:33 87° ESE 17:12:14 15° NNE
USA 276 3.0 17:06:26 10° SSW 17:08:15 25° SSE 17:08:15 25° SSE
SL-8 R/B 3.8 17:04:21 10° W 17:09:07 74° SSW 17:12:00 24° ESE
Cosmos 1844 Rocket 3.9 17:05:20 10° SSE 17:08:55 21° ESE 17:08:55 21° ESE
Cosmos 2227 Rocket 3.5 17:05:17 10° WSW 17:10:30 37° NW 17:15:45 10° NNE
RESURS DK-1 4.5 17:08:19 10° N 17:09:17 13° NNE 17:09:17 13° NNE
CZ-4 R/B 4.3 17:13:19 10° SSE 17:17:22 70° ENE 17:21:27 10° N
YAOGAN 1 3.5 17:19:24 29° NNE 17:19:24 29° NNE 17:22:02 10° N
Cosmos 1603 3.7 17:14:52 10° NNW 17:20:33 62° ENE 17:26:08 10° SE
Cosmos 1812 2.4 17:17:07 10° S 17:20:47 77° E 17:22:20 33° NNE
Cosmos 2251 Rocket 3.4 17:16:49 10° NNW 17:22:09 67° ENE 17:27:29 10° SSE
CZ-4B R/B 3.7 17:17:24 10° S 17:22:31 74° WSW 17:27:31 10° NNW
SKYMED 2 3.5 17:23:18 26° NNE 17:25:40 68° ESE 17:29:59 10° S
Cosmos 407 Rocket 3.3 17:21:39 10° NNW 17:26:51 68° ENE 17:31:56 10° SSE
USA 305 2.4 17:24:13 10° WNW 17:28:05 82° NNE 17:28:38 63° ESE
APEX 4.4 17:25:16 10° S 17:26:37 21° S 17:26:37 21° S
ATLAS 2AS CENTAUR R/B 3.1 17:21:31 10° NW 17:28:10 43° NE 17:30:16 34° ENE
JB-3 4.4 17:30:55 54° ESE 17:30:55 54° ESE 17:34:23 10° S
Lacrosse 4 Rocket 1.3 17:28:06 10° NNW 17:32:29 88° NE 17:34:32 30° SSE
SL-16 R/B 4.4 17:28:42 10° NW 17:33:22 27° WSW 17:38:01 10° SSW
TRAILBLAZER 4.5 17:29:04 10° SW 17:33:40 85° SE 17:34:57 48° NE
Cosmos 1782 3.4 17:34:55 10° S 17:37:38 41° SSE 17:37:38 41° SSE
Cosmos 1818 3.8 17:34:41 10° SSW 17:39:52 48° ESE 17:40:24 47° E
Meteor 2-2 Rocket 4.2 17:36:01 10° S 17:41:45 82° E 17:47:28 11° NNE
Meteor 2-9 4.5 17:37:00 10° N 17:42:25 87° E 17:47:53 10° S
Meteor 2-17 Rocket 4.3 17:38:55 10° S 17:45:00 70° E 17:51:07 10° NNE
Timation 2 Rocket 4.4 17:40:22 10° S 17:45:09 37° ESE 17:45:09 37° ESE
Cosmos 1943 3.6 17:42:15 10° NNW 17:47:48 63° WSW 17:53:22 10° SSE
Cosmos 1812 Rocket 3.8 17:45:41 10° SSW 17:49:58 65° W 17:52:19 26° N
CZ-4B DEB 4.1 17:49:04 26° SE 17:52:16 66° ENE 17:57:48 10° N
Radarsat Rocket 4.4 17:46:49 10° S 17:52:33 60° WSW 17:58:31 10° NNW
SL-08 R/B 3.1 17:54:02 58° NNE 17:54:56 89° NW 17:59:34 10° SSW
Cosmos 1190 Rocket 3.9 17:50:28 10° NNW 17:55:48 70° ENE 17:56:12 67° E
ADEOS 3.8 17:51:57 10° S 17:57:09 71° WSW 18:02:23 10° NNW
USA 307 3.7 17:59:57 10° WNW 18:03:12 43° WSW 18:03:12 43° WSW
USA 234 3.4 18:03:40 43° NE 18:05:53 69° NNW 18:12:23 10° WSW
ISS -1.4 18:06:07 10° W 18:08:24 22° SW 18:08:24 22° SW
PAYLOAD B 4.4 18:09:59 54° NNE 18:09:59 54° NNE 18:14:25 10° N
Cosmos 1553 Rocket 3.8 18:03:15 10° N 18:09:37 69° E 18:10:27 62° SE
Cosmos 1844 4.4 18:05:30 10° S 18:09:25 40° SSE 18:09:25 40° SSE
COSMO-SKYMED 1 3.7 18:11:54 27° NNW 18:13:40 41° WNW 18:17:44 10° SW
Cosmos 2344 3.3 18:06:14 10° SW 18:13:47 90° NW 18:16:08 48° NE
Cosmos 2026 Rocket 4.3 18:16:18 10° SSW 18:22:29 65° WNW 18:28:49 10° N
Meteor 1-26 Rocket 4.4 18:17:03 10° S 18:21:28 60° S 18:21:28 60° S
Lacrosse 5 3.2 18:22:16 10° SSW 18:24:56 30° SSW 18:24:56 30° SSW
ATLAS CENTAUR R/B 4.4 18:39:03 10° WNW 18:44:00 37° SW 18:52:07 12° SSE
Cosmos 2263 Rocket 4.2 18:48:02 10° W 18:52:14 21° NW 18:53:56 19° NNW
Cosmos 1844 Rocket 3.8 18:47:11 10° SW 18:50:37 38° SW 18:50:37 38° SW
ATLAS 2AS CENTAUR R/B 3.4 19:12:37 10° NW 19:17:44 47° WNW 19:17:44 47° WNW
